Regional Weather Roundup
Issued by NWS State College, PA

Home | Current Version | Previous Version | Graphics & Text | Print | Product List | Glossary Off
Versions: 1 2 3 4 5 6 7 8 9 10 11 12 13 14 15 16 17 18 19 20 21 22 23 24 25 26 27 28 29 30 31 32 33 34 35 36 37 38 39 40 41 42 43 44 45 46 47 48 49 50

000
ASUS41 KCTP 220503
RWRCTP

REGIONAL WEATHER ROUNDUP
NATIONAL WEATHER SERVICE STATE COLLEGE PA
100 AM EDT FRI MAY 22 2015

Note: "fair" indicates few or no clouds below 12,000 feet with no
significant weather and/or obstructions to visibility.

* = STATION THAT DOES NOT REPORT PRECIPITATION /E.G. RAIN...SNOW...ETC/
    THUNDER OR FOG.

PAZ002>004-007>009-013>016-020>023-029>032-220600-
WESTERN PENNSYLVANIA

CITY           SKY/WX    TMP DP  RH WIND       PRES   REMARKS
ERIE           CLEAR     51  36  56 SW9       29.96S
MEADVILLE      CLEAR     45  35  68 SW6       29.99S
FRANKLIN*      CLEAR     43  34  70 SW8       30.01S
NEW CASTLE     FAIR      44  41  89 CALM      30.04R
BEAVER COUNTY  NOT AVBL
BUTLER*        CLEAR     43  39  87 W5        30.04S
PITTSBURGH INT CLEAR     47  40  76 W6        30.04S
PITTSBURGH     CLEAR     47  38  71 W10       30.03S
INDIANA*       MOCLDY    45  45 100 CALM      30.06S FOG
LATROBE        CLEAR     45  45 100 S5        30.06S
WASHINGTON CO* CLEAR     41  39  93 W6        30.08S
$$

PAZ004>006-010>012-017>019-024>028-033>037-041-042-045-046-049>053-220600-
CENTRAL PENNSYLVANIA

CITY           SKY/WX    TMP DP  RH WIND       PRES   REMARKS
BRADFORD       PTCLDY    44  32  62 W5        29.96S
DUBOIS         MOCLDY    43  40  89 SW8       29.98S
CLEARFIELD     MOCLDY    46  43  89 SW3       29.99S
JOHNSTOWN      MOCLDY    43  41  93 W9        30.01S
ALTOONA        MOCLDY    46  42  86 W6        30.01R
STATE COLLEGE  CLOUDY    47  43  86 W5        29.98R
WILLIAMSPORT   MOCLDY    50  47  89 W8        29.93S
SELINSGROVE    CLOUDY    51  46  83 CALM      29.94F
FT INDIANTOWN  MOCLDY    53  46  77 NW7       29.93S
CAPITAL CITY   MOCLDY    52  46  80 NW7       29.95S
HARRISBURG     PTCLDY    53  47  79 NW7       29.94S
YORK           MOCLDY    50  47  89 NW3       29.95S
$$

PAZ038>040-043-044-047-048-054-055-060>062-067>071-220600-
EASTERN PENNSYLVANIA

CITY           SKY/WX    TMP DP  RH WIND       PRES   REMARKS
SCRANTON       LGT RAIN  51  44  77 SW5       29.90S
MOUNT POCONO   CLOUDY    47  41  80 NW9       29.88S
ALLENTOWN      CLOUDY    54  43  66 NW7       29.90S
QUAKERTOWN*    CLOUDY    48  45  87 CALM      29.91S
READING        CLOUDY    54  45  71 NW13      29.91S
LANCASTER      MOCLDY    51  46  83 NW9       29.93R
COATESVILLE    MOCLDY    50  46  87 NW9       29.93R
POTTSTOWN      CLOUDY    50  45  83 CALM      29.92S
BLUE BELL      CLOUDY    50  48  93 CALM      29.90S
DOYLESTOWN     CLOUDY    49  46  90 CALM      29.89F
WILLOW GROVE   NOT AVBL
NORTH PHILA    CLOUDY    52  47  83 CALM      29.92F HAZE
PHILADELPHIA   CLOUDY    54  47  77 W6        29.92S
$$



USA.gov is the U.S. government's official web portal to all federal, state and local government web resources and services.